Flag for Montenegro Weather past 2 weeks in Podgorica, Montenegro

Now
81 °F

Clear.


Feels Like: 81 °F
Forecast: 80 / 96 °F
Wind: 1 mph from North

Location: Podgorica Titograd

Current Time: Aug 3, 2015 at 3:09:29 AM

Latest Report: Aug 3, 2015 at 2:30 AM


Visibility: 10 mi

Pressure: 29.95 "Hg

Humidity: 48%

Dew point: 59 °F

Location of PodgoricaLocation

Historic Weather in Podgorica — Graph

°F

Podgorica temperature yesterday

Maximum temperature yesterday: 100 °F (at 4:30 PM)
Minimum temperature yesterday: 77 °F (at 5:30 AM)
Average temperature yesterday: 89 °F

Past Weeks' High & Low Weather Summary

 TemperatureHumidityPressure
High104 °F (Jul 20, 3:30 PM)69% (Jul 20, 5:00 AM)29.98 "Hg (Jul 20, 5:00 AM)
Low73 °F (Jul 20, 5:00 AM)15% (Jul 22, 3:30 PM)29.68 "Hg (Jul 27, 3:00 PM)
Average88 °F42%29.80 "Hg
* Reported Jul 19 2:00 AM — Aug 3 2:00 AM, Podgorica, Weather by CustomWeather, © 2015

Note: Actual official high and low records may vary slightly from our data, if they occured in-between our weather recording intervals... More about our weather records

Advertising

Podgorica weather history for previous 24 hours

 ConditionsComfort  
Time TempWeatherWind HumidityBarometerVisibility
2:00 AM
Mon, Aug 3
81 °FClear.6 mph51%29.95 "Hg10 mi
1:30 AM82 °FClear.1 mph48%29.95 "Hg10 mi
1:00 AM82 °FClear.5 mph48%29.95 "Hg10 mi
12:30 AM84 °FClear.5 mph45%29.95 "Hg10 mi
12:00 AM84 °FPassing clouds.3 mph48%29.95 "HgN/A
11:30 PM
Sun, Aug 2
84 °FPassing clouds.3 mph51%29.95 "HgN/A
11:00 PM86 °FPassing clouds.2 mph49%29.95 "HgN/A
10:30 PM86 °FPassing clouds.1 mph49%29.95 "HgN/A
10:00 PM86 °FPassing clouds.5 mph49%29.95 "HgN/A
9:30 PM88 °FPassing clouds.6 mph43%29.95 "HgN/A
9:00 PM88 °FPassing clouds.6 mph40%29.95 "HgN/A
8:30 PM90 °FPassing clouds.5 mph36%29.92 "HgN/A
8:00 PM91 °FScattered clouds.6 mph34%29.92 "HgN/A
7:30 PM91 °FScattered clouds.6 mph36%29.92 "HgN/A
7:00 PM91 °FScattered clouds.5 mph36%29.92 "HgN/A
6:30 PM93 °FScattered clouds.10 mph32%29.92 "HgN/A
6:00 PM95 °FPassing clouds.14 mph28%29.92 "HgN/A
5:30 PM97 °FPassing clouds.16 mph28%29.92 "HgN/A
5:00 PM99 °FPassing clouds.17 mph25%29.92 "HgN/A
4:30 PM100 °FPassing clouds.16 mph24%29.92 "HgN/A
4:00 PM99 °FPassing clouds.8 mph31%29.92 "HgN/A
3:30 PM99 °FPassing clouds.7 mph31%29.92 "HgN/A
3:00 PM99 °FPassing clouds.7 mph31%29.92 "HgN/A
2:30 PM99 °FPassing clouds.8 mph29%29.95 "HgN/A
2:00 PM99 °FPassing clouds.5 mph29%29.95 "HgN/A
1:30 PM97 °FPassing clouds.5 mph32%29.95 "HgN/A
1:00 PM97 °FPassing clouds.6 mph30%29.98 "HgN/A
12:30 PM97 °FPassing clouds.7 mph30%29.98 "HgN/A
12:00 PM95 °FPassing clouds.5 mph34%29.98 "HgN/A
11:30 AM95 °FPassing clouds.6 mph36%29.98 "HgN/A
11:00 AM93 °FPassing clouds.5 mph39%29.98 "HgN/A
10:30 AM93 °FSunny.3 mph39%29.98 "Hg10 mi
10:00 AM90 °FSunny.1 mph41%29.98 "Hg10 mi
9:30 AM90 °FPassing clouds.2 mph41%29.98 "HgN/A
9:00 AM88 °FPassing clouds.3 mph43%29.98 "HgN/A
8:30 AM86 °FPassing clouds.3 mph49%29.98 "HgN/A
8:00 AM84 °FPassing clouds.5 mph51%29.98 "HgN/A
7:30 AM82 °FSunny.5 mph55%29.98 "Hg10 mi
7:00 AM81 °FSunny.2 mph58%29.98 "Hg10 mi
6:30 AM77 °FPassing clouds.5 mph65%29.95 "HgN/A
6:00 AM77 °FClear.5 mph65%29.95 "Hg10 mi
5:30 AM77 °FClear.2 mph65%29.95 "Hg10 mi
5:00 AM79 °FClear.2 mph61%29.95 "Hg10 mi
4:30 AM79 °FClear.2 mph61%29.95 "Hg10 mi
4:00 AM79 °FClear.2 mph65%29.95 "Hg10 mi
3:30 AM81 °FClear.1 mph62%29.95 "Hg10 mi
3:00 AM81 °FPassing clouds.5 mph62%29.95 "HgN/A
Weather by CustomWeather, © 2015

See weather overviewHow to use our weather pages